Hourly Data Report for July 04, 2021

BORDEN AWOS
ONTARIO
Current Station Operator: DND

44°16'20.000" N
79°54'42.000" W
222.50 m
611B002
71534
YBN

Download Data

Hourly Data (July 2021)
Hourly Data Report for July 4, 2021
TIME
LST
Temp Definition
°C
Dew Point Definition
°C
Rel Hum Definition
%
Precip. Amount Definition
mm

Wind Dir Definition
10's deg

Wind Spd Definition
km/h
Visibility Definition
km
Stn Press Definition
kPa
Hmdx Definition


Wind Chill Definition


Weather Definition


00:00 13.2 12.5 96     0 14.5 98.48     LegendNANA
01:00 12.1 11.8 98   3 4 14.5 98.48     LegendNANA
02:00 11.1 10.6 97     0 14.5 98.47     LegendNANA
03:00 11.4 11.4 100   27 4 14.5 98.45     LegendNANA
04:00 10.3 10.3 100     0 14.5 98.50     LegendNANA
05:00 10.3 10.1 99     0 14.5 98.54     LegendNANA
06:00 13.5 12.7 95   12 4 14.5 98.57     LegendNANA
07:00 17.4 14.0 80   13 6 14.5 98.62     LegendNANA
08:00 20.5 16.2 76   14 7 14.5 98.66 25   LegendNANA
09:00 21.8 16.6 72   12 9 14.5 98.69 27   LegendNANA
10:00 22.5 16.5 69   18 9 14.5 98.69 27   LegendNANA
11:00 25.2 15.8 56   15 13 14.5 98.68 30   LegendNANA
12:00 24.4 16.1 60   17 11 14.5 98.68 29   LegendNANA
13:00 26.5 15.9 52   15 19 14.5 98.67 31   LegendNANA
14:00 26.1 15.8 53   13 15 14.5 98.67 31   LegendNANA
15:00 26.5 16.0 53   15 15 14.5 98.66 31   LegendNANA
16:00 26.8 16.4 53   14 19 14.5 98.64 32   LegendNANA
17:00 26.7 16.2 53   18 15 14.5 98.63 31   LegendNANA
18:00 25.8 15.8 54   15 15 14.5 98.66 30   LegendNANA
19:00 23.8 14.9 58   15 15 14.5 98.70 28   LegendNANA
20:00 22.4 14.1 59   16 17 14.5 98.71 26   LegendNANA
21:00 20.9 13.2 61   17 13 14.5 98.77     LegendNANA
22:00 18.7 13.6 72   16 7 14.5 98.79     LegendNANA
23:00 18.2 13.0 72   18 9 14.5 98.79     LegendNANA

Notes on Data Quality.

Legend

  • E = Estimated
  • M = Missing
  • NA = Not Available*
  • [empty] = Indicates an unobserved value
Date modified: